Regional Weather Roundup
Issued by NWS

Home | Current Version | Previous Version | Text Only | Print | Product List | Glossary On
Versions: 1 2 3 4 5 6 7 8 9 10 11 12 13 14 15 16 17 18 19 20 21 22 23 24 25 26 27 28 29 30 31 32 33 34 35 36 37 38 39 40 41 42 43 44 45 46 47 48 49 50
000
ASUS43 KTOP 161059
RWRKS

WEATHER ROUNDUP FOR KANSAS
NATIONAL WEATHER SERVICE GOODLAND KS
600 AM CDT TUE SEP 16 2014

NOTE:  "FAIR" INDICATES FEW OR NO CLOUDS BELOW 12,000 FEET WITH NO
SIGNIFICANT WEATHER AND/OR OBSTRUCTIONS TO VISIBILITY.

KSZ001>006-013>018-027>032-041>047-161200-
NORTHWEST KANSAS

CITY           SKY/WX    TMP DP  RH WIND       PRES   REMARKS
GOODLAND       CLOUDY    58  54  86 S10       30.19F
HAYS           CLOUDY    50  45  81 E7        30.23F
HILL CITY      MOCLDY    48  45  89 CALM      30.24S
RUSSELL        MOCLDY    48  47  96 E6        30.22F
$$

KSZ061>065-074>080-084>089-161200-
SOUTHWEST KANSAS

CITY           SKY/WX    TMP DP  RH WIND       PRES   REMARKS
DODGE CITY     MOCLDY    53  51  93 E3        30.23F
ELKHART          N/A     58  55  90 SW2         N/A
GARDEN CITY    CLOUDY    58  56  93 SE5       30.22S
GREAT BEND     MOCLDY    52  46  82 E6        30.24S
LIBERAL        CLOUDY    61  54  77 SE3       30.24F
PRATT          CLOUDY    57  54  88 E6        30.23S
$$

KSZ066>073-081>083-090>101-161200-
SOUTHEAST KANSAS

CITY           SKY/WX    TMP DP  RH WIND       PRES   REMARKS
CHANUTE        CLOUDY    59  50  72 NE8       30.21R
COFFEYVILLE    CLOUDY    61  56  83 NE12      30.19R
HUTCHINSON     CLOUDY    57  49  74 NE8       30.22F
NEWTON         CLOUDY    54  46  76 NE7       30.24S
PARSONS        CLOUDY    60  53  77 VRB5      30.20S
WICHITA INTL   CLOUDY    61  50  67 NE7       30.20S
WICHITA JABRA  CLOUDY    57  51  80 NE8       30.21S
WINFIELD       CLOUDY    62  55  77 NE9       30.20S
$$

KSZ007>012-019>026-033>040-048>060-102>105-161200-
NORTHEAST KANSAS

CITY           SKY/WX    TMP DP  RH WIND       PRES   REMARKS
CONCORDIA      CLEAR     45  45 100 CALM      30.25S
EMPORIA        CLEAR     49  48  97 NE6       30.24R
LAWRENCE       CLEAR     44  42  93 CALM      30.24F
MANHATTAN      CLEAR     45  44  97 CALM      30.24F
OLATHE IND     CLEAR     47  46  97 N7        30.24S
OLATHE EXE     CLEAR     48  47  96 NE5       30.23S
SALINA         CLEAR     49  46  90 SE3       30.25S
TOPEKA BILLARD CLEAR     46  44  93 CALM      30.24F FOG
TOPEKA FORBES  CLEAR     47  46  97 CALM      30.23F
$$


USA.gov is the U.S. government's official web portal to all federal, state and local government web resources and services.